#timestamp,LO_Frequency,Hit,StdDev 
1669021215.2,286046999.9,N
1669021235.1,286046999.9,N
1669021236.0,286046999.9,N
1669021255.8,286047000.6,N
1669021275.6,286047001.0,N
1669021295.5,286046999.8,N
1669021315.3,286047000.0,N
1669021335.2,286047000.5,N
1669021355.9,286046998.5,N
1669021375.7,286046999.2,N
1669021395.6,286046999.1,N
1669021415.4,286047030.3,Y
1669021435.2,286047034.7,P
1669021455.1,286047032.2,N
1669021456.0,286047032.2,N
1669021475.8,286047032.9,N
1669021495.7,286047032.7,N
1669021515.5,286047033.0,N
1669021535.3,286047030.2,N
1669021555.2,286047030.9,N
1669021575.0,286047031.3,Y
1669021575.9,286047031.3,P
1669021595.7,286047002.2,N
1669021615.6,286047002.5,N
1669021635.4,286047002.7,N
1669021655.3,286047000.7,N
1669021675.1,286047002.3,N
1669021676.0,286047002.3,N
1669021695.8,286047001.5,N
1669021715.7,286047002.6,N
1669021735.5,286047002.8,N
1669021755.3,286047002.0,N
1669021775.2,286047000.1,N
1669021795.0,286047002.5,N
1669021795.9,286047002.5,N
1669021815.8,286047000.6,N
1669021835.6,286046999.8,N
1669021855.4,286047000.4,N
1669021875.3,286047000.8,N
1669021895.1,286047000.5,N
1669021915.8,286047000.9,N
1669021935.7,286047002.5,N
1669021955.5,286046999.7,N
1669021975.4,286046998.2,N
1669021995.2,286047000.8,N
1669022015.0,286046977.9,N
1669022015.9,286046977.9,N
1669022035.8,286047001.1,N
1669022055.6,286046998.6,N
1669022075.4,286046999.2,N
1669022095.3,286046996.9,N
1669022115.1,286046999.2,N
1669022135.9,286047000.8,N
1669022155.7,286047000.0,N
1669022175.5,286046999.0,N
1669022195.4,286046999.1,N
1669022215.2,286046999.2,N
1669022235.0,286046998.9,N
1669022235.9,286046998.9,N
1669022255.8,286046996.5,N
1669022275.6,286046998.5,N
1669022295.5,286047000.8,N
1669022315.3,286046999.6,N
1669022335.1,286046997.8,N
1669022355.9,286046998.6,N
1669022375.7,286046999.1,N
1669022395.5,286046996.9,N
1669022415.4,286046997.0,N
1669022435.2,286046999.4,N
1669022455.0,286046999.3,N
1669022456.0,286046999.3,N
1669022475.8,286046996.9,N
1669022495.6,286046997.2,N
1669022515.5,286046999.6,N
1669022535.3,286046996.9,N
1669022555.1,286046997.6,N
1669022575.9,286046995.5,N
1669022595.7,286046997.6,N
1669022615.5,286046997.2,N
1669022635.4,286046996.8,N
1669022655.2,286046999.5,N
1669022675.1,286046999.1,N
1669022676.0,286046999.1,N
1669022695.8,286046999.1,N
1669022715.6,286047000.9,N
1669022735.5,286047001.2,N
1669022755.3,286047000.8,N
1669022775.1,286047000.7,N
1669022795.9,286046998.4,N
1669022815.7,286046997.2,N
1669022835.6,286046996.9,N
1669022855.4,286046999.5,N
1669022875.2,286046999.5,N
1669022895.1,286046999.3,N
1669022896.0,286046999.3,N
1669022915.8,286046998.4,N
1669022935.6,286046998.6,N
1669022955.5,286046997.8,N
1669022975.3,286046999.1,N
1669022995.2,286046999.4,N
1669023015.9,286047000.5,N
1669023035.7,286047000.6,N
1669023055.6,286046999.4,N
1669023075.4,286046996.5,N
1669023095.2,286046997.6,N
1669023115.1,286046994.9,Y
1669023116.0,286046994.9,P
1669023135.8,286046997.0,N
1669023155.7,286046999.4,N
1669023175.5,286046999.4,N
1669023195.3,286046996.6,N
1669023215.2,286046996.5,N
1669023235.0,286047000.7,N
1669023235.9,286047000.7,N
1669023255.8,286047001.1,N
1669023275.6,286046998.4,N
1669023295.4,286046998.7,N
1669023315.3,286046998.5,N
1669023335.1,286046999.5,N
1669023336.0,286046999.5,N
1669023355.8,286046997.3,N
1669023375.7,286046996.6,N
1669023395.5,286046998.4,N
1669023415.3,286047000.6,N
1669023435.2,286047001.2,N
1669023455.0,286046999.4,N
1669023455.9,286046999.4,N
1669023475.8,286046999.3,N
1669023495.6,286046998.9,N
1669023515.4,286046997.1,N
1669023535.3,286046999.2,N
1669023555.1,286046999.1,N
1669023575.8,286046997.3,N
1669023595.7,286046996.9,N
1669023615.5,286046997.0,N
1669023635.4,286046997.1,N
1669023655.2,286046998.3,N
1669023675.0,286046997.0,N
1669023675.9,286046997.0,N
1669023695.8,286046995.7,Y
1669023715.6,286046998.5,P
1669023735.4,286046998.7,P
1669023755.3,286046997.0,P
1669023775.1,286046998.4,N
1669023795.9,286046998.9,N
1669023815.7,286046997.6,Y
1669023865.6,286047002.2,E
1669023875.5,286047000.0,N
1669023895.3,286046996.9,P
1669023915.2,286046996.9,N
1669023935.0,286046999.0,N
1669023935.9,286046999.0,N
1669023955.7,286047000.1,N
1669023975.6,286046998.6,N
1669023995.4,286046997.2,N
1669024015.3,286046997.3,N
1669024035.1,286046995.1,Y
1669024055.8,286046997.1,P
1669024075.7,286046996.9,P
1669024095.5,286047001.2,N
1669024115.3,286047000.3,N
1669024135.2,286047000.2,N
1669024155.0,286047001.0,N
1669024155.9,286047001.0,N
1669024175.8,286047000.7,N
1669024195.6,286047000.0,N
1669024215.4,286047001.0,N
1669024235.3,286046999.6,N
1669024255.1,286046998.5,N
1669024275.8,286047001.1,N
1669024295.7,286046998.3,N
1669024315.5,286046997.8,N
1669024335.4,286046995.0,Y
1669024355.2,286046999.3,P
1669024375.0,286047000.8,P
1669024375.9,286047000.8,N
1669024395.8,286046994.9,Y
1669024415.6,286046997.6,P
1669024435.5,286046995.1,P
1669024455.3,286046996.9,N
1669024475.1,286046996.6,N
1669024495.9,286046997.9,N
1669024515.7,286046994.9,Y
1669024535.5,286046997.0,P
1669024555.4,286046996.6,P
1669024575.2,286046997.8,P
1669024595.1,286046970.4,Y
1669024596.0,286046970.4,P
1669024615.8,286046973.7,N
1669024635.6,286046971.8,N
1669024655.5,286046972.3,N
1669024675.3,286046974.0,N
1669024695.2,286046971.1,Y
1669024715.9,286046995.4,P
1669024735.7,286046993.8,N
1669024755.6,286046994.6,N
1669024775.4,286046999.5,N
1669024795.2,286046994.4,N
